{"data":{"norad_id":26575,"intl_designator":"2000-065A","name":"USA 153","alt_names":[],"object_type":"PAYLOAD","status":"ACTIVE","operator":null,"country":"US","launch_date":"2000-10-20","launch_site_code":"AFETR","launch_vehicle":null,"mission":null,"orbit_class":"UNKNOWN","rcs_meters":null,"size_class":null,"mass_kg":null,"dimensions":null,"purposes":["comms"],"wikipedia_slug":null,"has_3d_model":false,"image_url":null,"decayed_at":null,"tle_current":{"epoch":"2026-05-24T13:38:38.559840Z","epoch_age_seconds":108296,"freshness":"FRESH","line1":"1 26575U 00065A   26144.56850185 -.00000330  00000+0  00000+0 0  9996","line2":"2 26575  11.5859  35.6189 0003129  33.3268 152.2963  1.00275210 32694","mean_motion":1.0027521,"eccentricity":0.0003129,"inclination_deg":11.5859,"raan_deg":35.6189,"arg_perigee_deg":33.3268,"mean_anomaly_deg":152.2963,"bstar":0,"rev_number":3269,"period_min":1436.0478527046,"perigee_km":35772.441792481,"apogee_km":35798.827880896,"semimajor_km":42163.771836689,"source":"CELESTRAK","updated_at":"2026-05-25T13:38:13.811168Z"}}}